Time,TemperatureF,DewpointF,PressureIn,WindDirection,WindDirectionDegrees,WindSpeedMPH,WindSpeedGustMPH,Humidity,HourlyPrecipIn,Conditions,Clouds,dailyrainin,SoftwareType,DateUTC
2013-07-11 00:00:00,83.3,57.8,29.77,South,191,2.0,3.0,42,0.00,,,0.00,Wunderground v.1.15,2013-07-11 05:00:00,
2013-07-11 00:30:00,82.1,58.0,29.77,SSW,194,4.0,4.0,44,0.00,,,0.00,Wunderground v.1.15,2013-07-11 05:30:00,
2013-07-11 01:00:00,80.9,58.2,29.77,SSW,192,4.0,4.0,46,0.00,,,0.00,Wunderground v.1.15,2013-07-11 06:00:00,
2013-07-11 01:30:00,79.3,58.5,29.78,SSW,193,4.0,6.0,49,0.00,,,0.00,Wunderground v.1.15,2013-07-11 06:30:00,
2013-07-11 02:00:00,78.9,58.7,29.79,SSW,193,2.0,6.0,50,0.00,,,0.00,Wunderground v.1.15,2013-07-11 07:00:00,
2013-07-11 02:30:00,77.7,58.7,29.79,SSW,193,4.0,6.0,52,0.00,,,0.00,Wunderground v.1.15,2013-07-11 07:30:00,
2013-07-11 03:00:00,77.0,59.1,29.79,SSW,193,4.0,6.0,54,0.00,,,0.00,Wunderground v.1.15,2013-07-11 08:00:00,
2013-07-11 03:30:00,77.1,59.7,29.79,SSW,196,5.0,5.0,55,0.00,,,0.00,Wunderground v.1.15,2013-07-11 08:30:00,
2013-07-11 04:00:00,77.2,61.8,29.79,South,190,5.0,5.0,59,0.00,,,0.00,Wunderground v.1.15,2013-07-11 09:00:00,
2013-07-11 04:30:00,77.7,64.1,29.79,SSW,192,6.0,6.0,63,0.00,,,0.00,Wunderground v.1.15,2013-07-11 09:30:00,
2013-07-11 05:00:00,77.4,64.7,29.78,SSW,194,5.0,6.0,65,0.00,,,0.00,Wunderground v.1.15,2013-07-11 10:00:00,
2013-07-11 05:30:00,77.1,65.7,29.77,South,187,5.0,5.0,68,0.00,,,0.00,Wunderground v.1.15,2013-07-11 10:30:00,
2013-07-11 06:00:00,76.9,66.0,29.77,South,190,5.0,5.0,69,0.00,,,0.00,Wunderground v.1.15,2013-07-11 11:00:00,
2013-07-11 06:30:00,76.5,66.0,29.77,South,174,6.0,6.0,70,0.00,,,0.00,Wunderground v.1.15,2013-07-11 11:30:00,
2013-07-11 07:00:00,75.6,65.5,29.78,SSW,202,5.0,5.0,71,0.00,,,0.00,Wunderground v.1.15,2013-07-11 12:00:00,
2013-07-11 07:30:00,75.8,66.1,29.78,SSW,202,4.0,12.0,72,0.00,,,0.00,Wunderground v.1.15,2013-07-11 12:30:00,
2013-07-11 08:00:00,77.4,66.4,29.78,SW,230,5.0,5.0,69,0.00,,,0.00,Wunderground v.1.15,2013-07-11 13:00:00,
2013-07-11 08:30:00,79.0,66.2,29.79,SW,217,7.0,7.0,65,0.00,,,0.00,Wunderground v.1.15,2013-07-11 13:30:00,
2013-07-11 09:00:00,81.3,66.6,29.78,SSW,192,6.0,6.0,61,0.00,,,0.00,Wunderground v.1.15,2013-07-11 14:00:00,
2013-07-11 09:30:00,83.4,66.6,29.78,SW,220,6.0,6.0,57,0.00,,,0.00,Wunderground v.1.15,2013-07-11 14:30:00,
2013-07-11 10:01:00,84.6,66.7,29.78,WSW,249,7.0,12.0,55,0.00,,,0.00,Wunderground v.1.15,2013-07-11 15:01:00,
2013-07-11 10:30:00,86.3,67.2,29.78,WSW,245,6.0,6.0,53,0.00,,,0.00,Wunderground v.1.15,2013-07-11 15:30:00,
2013-07-11 11:00:00,88.5,66.9,29.78,WNW,286,6.0,6.0,49,0.00,,,0.00,Wunderground v.1.15,2013-07-11 16:00:00,
2013-07-11 11:31:00,89.0,66.8,29.78,SSE,166,8.0,12.0,48,0.00,,,0.00,Wunderground v.1.15,2013-07-11 16:31:00,
2013-07-11 12:01:00,90.0,65.8,29.78,SW,217,7.0,8.0,45,0.00,,,0.00,Wunderground v.1.15,2013-07-11 17:01:00,
2013-07-11 12:30:00,92.0,64.2,29.78,West,263,6.0,6.0,40,0.00,,,0.00,Wunderground v.1.15,2013-07-11 17:30:00,
2013-07-11 13:00:00,92.5,63.9,29.77,SSE,157,4.0,16.0,39,0.00,,,0.00,Wunderground v.1.15,2013-07-11 18:00:00,
2013-07-11 13:31:00,93.7,62.7,29.76,SW,232,8.0,16.0,36,0.00,,,0.00,Wunderground v.1.15,2013-07-11 18:31:00,
2013-07-11 14:01:00,94.8,62.1,29.75,SSE,166,6.0,16.0,34,0.00,,,0.00,Wunderground v.1.15,2013-07-11 19:01:00,
2013-07-11 14:31:00,95.6,61.9,29.74,SE,136,7.0,7.0,33,0.00,,,0.00,Wunderground v.1.15,2013-07-11 19:31:00,
2013-07-11 15:00:00,95.9,60.4,29.74,SSE,161,8.0,8.0,31,0.00,,,0.00,Wunderground v.1.15,2013-07-11 20:00:00,
2013-07-11 16:01:00,97.5,59.9,29.70,SSW,201,6.0,6.0,29,0.00,,,0.00,Wunderground v.1.15,2013-07-11 21:01:00,
2013-07-11 16:31:00,97.2,59.6,29.69,ESE,117,5.0,16.0,29,0.00,,,0.00,Wunderground v.1.15,2013-07-11 21:31:00,
2013-07-11 17:01:00,97.4,57.8,29.69,South,169,3.0,3.0,27,0.00,,,0.00,Wunderground v.1.15,2013-07-11 22:01:00,
2013-07-11 19:01:00,95.6,58.3,29.65,East,95,4.0,11.0,29,0.00,,,0.00,Wunderground v.1.15,2013-07-12 00:01:00,
2013-07-11 19:31:00,94.8,58.5,29.65,East,94,3.0,11.0,30,0.00,,,0.00,Wunderground v.1.15,2013-07-12 00:31:00,
2013-07-11 20:01:00,93.8,58.6,29.66,East,94,4.0,11.0,31,0.00,,,0.00,Wunderground v.1.15,2013-07-12 01:01:00,
2013-07-11 21:31:00,89.9,60.9,29.67,South,178,6.0,11.0,38,0.00,,,0.00,Wunderground v.1.15,2013-07-12 02:31:00,
2013-07-11 22:31:00,87.9,59.8,29.69,SSE,168,6.0,6.0,39,0.00,,,0.00,Wunderground v.1.15,2013-07-12 03:31:00,
2013-07-11 23:01:00,87.0,59.8,29.69,South,190,6.0,6.0,40,0.00,,,0.00,Wunderground v.1.15,2013-07-12 04:01:00,
2013-07-11 23:31:00,85.7,59.3,29.70,South,191,5.0,11.0,41,0.00,,,0.00,Wunderground v.1.15,2013-07-12 04:31:00,